[[{"header":{"parameterUnit":"m.s-1","parameterCategory":1,"la1":30.2991,"la2":30.254,"lo1":-89.0895,"lo2":-89.0444,"dy":0.0017,"dx":0.0017,"nx":28,"ny":28,"refTime":"2024-02-13T03:00:00:Z","depth":0,"parameterNumber":2,"parameterNumberName":"U-component_of_WINDS"},"data":[0,0,0,0,0,0,0,0,0,0,0,0,0,0,0,0,0,0,0,0,0,0,0,0,0,0,0,0,0,0,0,0,0,0,0,0,0,0,0,0,0,0,0,0,0,0,0,0,0,0,0,0,0,0,0,0,0,0,-2.3391,-2.3392,0,-2.3442,-2.3443,-2.3443,-2.3405,-2.3403,-2.3401,-2.34,-2.3453,-2.3456,-2.3459,0,0,0,0,0,0,0,0,0,0,0,0,0,-2.3262,-2.3265,-2.3391,-2.3392,-2.3392,-2.3442,-2.3443,-2.3443,-2.3405,-2.3403,-2.3401,-2.3399,-2.3452,-2.3456,-2.3459,0,0,0,0,0,0,0,0,0,0,0,0,0,-2.3316,-2.3265,-2.3391,-2.3379,-2.3379,-2.3442,-2.3443,-2.3444,-2.3405,-2.3403,-2.34,-2.3398,-2.3451,-2.3455,-2.346,-2.3537,0,0,-2.3473,-2.3475,0,0,0,0,0,0,0,0,-2.3313,-2.3321,-2.338,-2.338,-2.338,-2.3414,-2.3417,-2.3475,-2.3406,-2.3395,-2.34,-2.3397,-2.3442,-2.3447,-2.3462,-2.354,-2.3542,-2.3474,-2.3476,-2.3478,-2.348,0,0,0,0,0,0,0,-2.3309,-2.3318,-2.3411,-2.3381,-2.3381,-2.3372,-2.3377,-2.3428,-2.3432,-2.3396,-2.3393,-2.34,-2.3442,-2.3458,-2.3463,-2.3543,-2.3474,-2.3478,-2.348,-2.3482,-2.3686,-2.3689,0,0,0,0,0,0,-2.3307,-2.3316,-2.341,-2.3413,-2.3339,-2.3376,-2.3382,-2.3406,-2.3432,-2.3433,-2.3402,-2.3398,-2.3452,-2.3458,-2.3465,-2.3557,-2.3478,-2.3482,-2.3485,-2.3684,-2.3687,-2.369,0,0,0,0,0,0,-2.3304,-2.3315,-2.3408,-2.3364,-2.3375,-2.3381,-2.3409,-2.3408,-2.3425,-2.3436,-2.3437,-2.3418,-2.345,-2.3459,-2.3519,-2.3558,-2.3484,-2.3489,-2.368,-2.3685,-2.3688,-2.3742,0,0,0,0,0,0,-2.33,-2.3315,-2.3344,-2.3364,-2.3377,-2.3461,-2.3411,-2.3411,-2.3432,-2.3427,-2.3451,-2.3453,-2.3449,-2.3513,-2.3524,-2.3563,-2.3492,-2.3677,-2.3682,-2.3687,-2.3737,-2.3747,-2.3756,0,0,0,0,0,-2.3296,-2.3357,-2.3346,-2.3357,-2.3414,-2.3463,-2.3471,-2.3464,-2.3436,-2.3465,-2.3473,-2.3452,-2.3553,-2.352,-2.3532,-2.3573,-2.3674,-2.3681,-2.3687,-2.3732,-2.3745,-2.3756,0,0,0,0,0,0,-2.3342,-2.336,-2.3347,-2.3417,-2.3439,-2.3457,-2.3494,-2.3478,-2.3509,-2.3503,-2.3495,-2.3501,-2.3564,-2.3575,-2.3538,-2.3649,-2.3609,-2.3618,-2.3639,-2.3652,-2.3662,-2.3657,-2.3496,0,0,0,0,0,-2.336,-2.3398,-2.3412,-2.3473,-2.3484,-2.3487,-2.3509,-2.3502,-2.3524,-2.3534,-2.3545,-2.3568,-2.3605,-2.3629,-2.3664,-2.3739,-2.3743,-2.3773,-2.3783,-2.3791,-2.3798,-2.3838,-2.3851,-2.371,-2.371,-2.371,0,0,-2.3398,-2.3413,-2.3437,-2.3482,-2.3498,-2.3538,-2.3495,-2.354,-2.3569,-2.354,-2.3598,-2.3608,-2.3633,-2.3701,-2.3731,-2.3711,-2.3838,-2.3799,-2.3805,-2.3808,-2.3845,-2.3859,-2.387,-2.3714,-2.3714,-2.3713,0,0,-2.3487,-2.3503,-2.3554,-2.3571,-2.3596,-2.3598,-2.361,-2.3631,-2.3636,-2.3693,-2.3672,-2.3708,-2.3771,-2.379,-2.3807,-2.3904,-2.3886,-2.3916,-2.3967,-2.4006,-2.4017,-2.4026,-2.406,-2.4072,-2.3923,-2.3924,-2.3924,0,-2.3532,-2.359,-2.3583,-2.3628,-2.3648,-2.3624,-2.3676,-2.3693,-2.3728,-2.3743,-2.372,-2.3799,-2.3815,-2.3886,-2.3909,-2.3925,-2.3939,-2.3912,-2.4016,-2.4025,-2.4034,-2.4066,-2.4079,-2.3927,-2.3926,-2.3926,-2.3926,0,-2.3643,-2.3684,-2.3723,-2.3756,-2.3781,-2.383,-2.383,-2.3856,-2.3847,-2.3852,-2.391,-2.3928,-2.3965,-2.3982,-2.3975,-2.4052,-2.4039,-2.4017,-2.3976,-2.4051,-2.4081,-2.4093,-2.3932,-2.393,-2.3929,-2.3929,0,0,-2.3762,-2.379,-2.3805,-2.3819,-2.3845,-2.3877,-2.3925,-2.3961,-2.3983,-2.4008,-2.4048,-2.4102,-2.4081,-2.4101,-2.4096,-2.413,-2.4204,-2.4103,-2.4103,-2.412,-2.429,-2.4306,-2.432,-2.4193,-2.4195,-2.4197,-2.4287,0,-2.3851,-2.3933,-2.3928,-2.4005,-2.4043,-2.4021,-2.4062,-2.4083,-2.4088,-2.4121,-2.4127,-2.4166,-2.4136,-2.4147,-2.418,-2.4188,-2.4238,-2.4182,-2.4229,-2.4231,-2.4222,-2.4336,-2.4353,-2.4437,-2.4299,-2.4301,-2.4303,0,-2.3966,-2.3995,-2.4076,-2.4095,-2.4111,-2.4148,-2.418,-2.4212,-2.4235,-2.4237,-2.426,-2.4248,-2.4297,-2.4256,-2.4322,-2.4284,-2.4303,-2.431,-2.4313,-2.4316,-2.427,-2.4341,-2.4464,-2.4476,-2.4321,-2.432,-2.4318,0,-2.4043,-2.4102,-2.4158,-2.4171,-2.4196,-2.4222,-2.4234,-2.4254,-2.4276,-2.4305,-2.4319,-2.4353,-2.4372,-2.4399,-2.4397,-2.4368,-2.4464,-2.4423,-2.4466,-2.4466,-2.4486,-2.4485,-2.4613,-2.4501,-2.4501,-2.4501,-2.4501,0,-2.4143,-2.4193,-2.4192,-2.4227,-2.4282,-2.4276,-2.4331,-2.434,-2.4358,-2.4394,-2.4378,-2.4412,-2.4408,-2.4442,-2.4442,-2.4496,-2.4505,-2.4507,-2.4506,-2.4508,-2.4508,-2.452,-2.4513,-2.4504,-2.4503,-2.4503,-2.4502,0,-2.4238,-2.4239,-2.4298,-2.4317,-2.4323,-2.4363,-2.4378,-2.4411,-2.4415,-2.446,-2.4471,-2.4477,-2.4517,-2.4518,-2.4564,-2.4563,-2.463,-2.4623,-2.4621,-2.462,-2.4662,-2.4658,-2.4802,-2.482,-2.4697,-2.4698,-2.4699,0,-2.4301,-2.4339,-2.4361,-2.4383,-2.4396,-2.4433,-2.4454,-2.445,-2.4474,-2.4503,-2.4532,-2.4569,-2.4599,-2.4664,-2.4673,-2.4707,-2.4701,-2.4749,-2.4706,-2.4706,-2.47,-2.4697,-2.47,-2.4757,-2.4758,-2.4759,-2.476,0,-2.4412,-2.4411,-2.4442,-2.4475,-2.4501,-2.4527,-2.455,-2.457,-2.4568,-2.4596,-2.4636,-2.4659,-2.4705,-2.4743,-2.4777,-2.4789,-2.4774,-2.4774,-2.4785,-2.4787,-2.4784,-2.4785,-2.4643,-2.477,-2.4769,-2.4768,-2.4768,-2.4767,-2.4492,-2.4524,-2.4544,-2.458,-2.4598,-2.462,-2.4651,-2.4659,-2.4692,-2.4728,-2.4724,-2.4768,-2.479,-2.4834,-2.4849,-2.4884,-2.4867,-2.4884,-2.4889,-2.4893,-2.4896,-2.478,-2.489,-2.489,-2.489,-2.489,-2.4889,0,-2.4601,-2.4613,-2.4646,-2.4679,-2.4708,-2.4691,-2.4716,-2.4741,-2.478,-2.4802,-2.4831,-2.4877,-2.4913,-2.4925,-2.4961,-2.4986,-2.498,-2.4996,-2.4993,-2.4996,-2.491,-2.4896,-2.5,-2.5,-2.5,-2.5,-2.5,-2.5,-2.4661,-2.4714,-2.4716,-2.4777,-2.4789,-2.4832,-2.4847,-2.4868,-2.4885,-2.4936,-2.4966,-2.4974,-2.4991,-2.5028,-2.5061,-2.5063,-2.5077,-2.5095,-2.5094,-2.5013,-2.5002,-2.4992,-2.4978,-2.5098,-2.5098,-2.5177,-2.5178,-2.5179]},{"header":{"parameterUnit":"m.s-1","parameterCategory":1,"la1":30.2991,"la2":30.254,"lo1":-89.0895,"lo2":-89.0444,"dy":0.0017,"dx":0.0017,"nx":28,"ny":28,"refTime":"2024-02-13T03:00:00:Z","depth":0,"parameterNumber":3,"parameterNumberName":"V-component_of_WINDS"},"data":[0,0,0,0,0,0,0,0,0,0,0,0,0,0,0,0,0,0,0,0,0,0,0,0,0,0,0,0,0,0,0,0,0,0,0,0,0,0,0,0,0,0,0,0,0,0,0,0,0,0,0,0,0,0,0,0,0,0,1.435,1.4351,0,1.4373,1.4373,1.4373,1.4376,1.4376,1.4375,1.4375,1.4396,1.4397,1.4398,0,0,0,0,0,0,0,0,0,0,0,0,0,1.4307,1.4308,1.435,1.4351,1.4351,1.4373,1.4373,1.4373,1.4376,1.4376,1.4375,1.4375,1.4396,1.4397,1.4398,0,0,0,0,0,0,0,0,0,0,0,0,0,1.4327,1.4308,1.435,1.4355,1.4356,1.4373,1.4373,1.4373,1.4376,1.4376,1.4375,1.4375,1.4396,1.4397,1.4398,1.4411,0,0,1.4401,1.4402,0,0,0,0,0,0,0,0,1.4326,1.4329,1.4354,1.4355,1.4355,1.4371,1.4365,1.4386,1.4376,1.4368,1.4375,1.4375,1.4388,1.439,1.4394,1.4412,1.4413,1.4401,1.4402,1.4402,1.4403,0,0,0,0,0,0,0,1.4325,1.4328,1.4359,1.4354,1.4355,1.4355,1.4358,1.4369,1.4379,1.4369,1.4369,1.4372,1.4388,1.4393,1.4395,1.4413,1.4401,1.4402,1.4403,1.4403,1.4442,1.4442,0,0,0,0,0,0,1.4323,1.4327,1.4358,1.436,1.434,1.4356,1.4359,1.4366,1.4379,1.4381,1.4372,1.4372,1.4392,1.4394,1.4396,1.4412,1.4402,1.4404,1.4404,1.4441,1.4442,1.4442,0,0,0,0,0,0,1.4322,1.4326,1.4357,1.4343,1.4347,1.4357,1.4366,1.4367,1.4372,1.4382,1.4383,1.4376,1.4391,1.4394,1.4407,1.4412,1.4404,1.4405,1.4441,1.4441,1.4442,1.4444,0,0,0,0,0,0,1.4321,1.4326,1.4331,1.4344,1.4348,1.4369,1.4366,1.4368,1.4374,1.4374,1.4386,1.4387,1.4391,1.4405,1.4408,1.4414,1.4406,1.444,1.4441,1.4442,1.4443,1.4444,1.4445,0,0,0,0,0,1.4319,1.4331,1.4332,1.4335,1.4356,1.437,1.4372,1.4377,1.4375,1.438,1.4386,1.4387,1.4411,1.4407,1.441,1.4416,1.444,1.4441,1.4442,1.4443,1.4444,1.4445,0,0,0,0,0,0,1.4318,1.4332,1.4334,1.4349,1.4358,1.437,1.4377,1.4379,1.4388,1.4388,1.4393,1.4395,1.4408,1.4413,1.4408,1.4429,1.4425,1.4427,1.4425,1.4426,1.4427,1.4425,1.4407,0,0,0,0,0,1.432,1.4331,1.4342,1.4355,1.4359,1.4367,1.4374,1.4377,1.4386,1.439,1.4397,1.4405,1.4415,1.4421,1.443,1.4444,1.4446,1.4449,1.445,1.4451,1.4452,1.4459,1.446,1.4445,1.4445,1.4445,0,0,1.4323,1.4332,1.4339,1.4355,1.4362,1.4372,1.4371,1.4382,1.4389,1.4391,1.4404,1.4409,1.4419,1.4432,1.4438,1.4437,1.4457,1.4452,1.4452,1.4453,1.446,1.4461,1.4463,1.4445,1.4445,1.4445,0,0,1.4335,1.4343,1.4354,1.4362,1.4373,1.4378,1.4381,1.4392,1.4396,1.4409,1.4411,1.4419,1.4435,1.4442,1.4447,1.446,1.4461,1.4463,1.4468,1.4474,1.4476,1.4477,1.4481,1.4482,1.4464,1.4464,1.4464,0,1.4337,1.4354,1.436,1.4371,1.4377,1.438,1.4391,1.4397,1.4411,1.4415,1.4413,1.4433,1.444,1.4455,1.4458,1.4462,1.4465,1.4462,1.4475,1.4476,1.4477,1.4481,1.4483,1.4464,1.4464,1.4464,1.4464,0,1.4356,1.4367,1.4374,1.4388,1.4395,1.4406,1.4413,1.4419,1.4422,1.4427,1.4439,1.4447,1.4458,1.4462,1.4464,1.4476,1.4475,1.4474,1.4471,1.4479,1.4482,1.4484,1.4465,1.4465,1.4464,1.4464,0,0,1.4367,1.4384,1.4386,1.4392,1.4404,1.4412,1.4423,1.4434,1.4439,1.4448,1.4456,1.447,1.4469,1.4475,1.4478,1.4484,1.4493,1.4482,1.4482,1.4483,1.4506,1.4506,1.4508,1.4493,1.4493,1.4494,1.4505,0,1.438,1.4399,1.4405,1.4421,1.443,1.4433,1.4442,1.445,1.4454,1.4463,1.4468,1.4477,1.4476,1.4479,1.4485,1.449,1.4497,1.449,1.45,1.45,1.4497,1.451,1.451,1.452,1.4506,1.4506,1.4507,0,1.4397,1.4407,1.4424,1.4434,1.4438,1.4446,1.4456,1.4464,1.4473,1.4476,1.4483,1.4485,1.4495,1.4491,1.4504,1.4499,1.4504,1.4507,1.4507,1.4508,1.4504,1.451,1.4523,1.4525,1.4509,1.4509,1.4509,0,1.4403,1.442,1.4432,1.4437,1.445,1.4455,1.446,1.4469,1.4475,1.4483,1.4487,1.4496,1.4501,1.4508,1.4512,1.4509,1.4525,1.4522,1.4527,1.4527,1.453,1.453,1.4544,1.4534,1.4534,1.4534,1.4533,0,1.4416,1.4426,1.4435,1.4443,1.4454,1.4459,1.447,1.4475,1.4482,1.449,1.4493,1.45,1.4506,1.4513,1.4517,1.4527,1.4529,1.4531,1.4532,1.4531,1.453,1.4533,1.4533,1.4534,1.4534,1.4534,1.4534,0,1.4425,1.4431,1.4445,1.4455,1.4458,1.4466,1.4474,1.4481,1.4486,1.4496,1.4498,1.4506,1.4515,1.452,1.4531,1.4533,1.4544,1.4545,1.4542,1.4542,1.4547,1.4546,1.4563,1.4565,1.4554,1.4554,1.4554,0,1.4432,1.444,1.4452,1.4457,1.4463,1.4472,1.4478,1.4484,1.449,1.45,1.4505,1.4514,1.4522,1.4536,1.4542,1.4551,1.4551,1.4556,1.4552,1.4551,1.455,1.455,1.455,1.4557,1.4557,1.4557,1.4557,0,1.4445,1.4448,1.4457,1.4467,1.4474,1.4482,1.449,1.4494,1.4501,1.4507,1.4517,1.4523,1.4534,1.4543,1.4552,1.4557,1.4558,1.4558,1.456,1.4559,1.4556,1.4557,1.4543,1.4558,1.4558,1.4558,1.4558,1.4558,1.4453,1.446,1.4469,1.4479,1.4485,1.4492,1.4499,1.4505,1.4513,1.4523,1.4526,1.4535,1.4543,1.4555,1.456,1.4567,1.4566,1.4568,1.4569,1.4569,1.4569,1.4555,1.4569,1.4569,1.4569,1.4569,1.4569,0,1.4466,1.4472,1.4481,1.4491,1.4499,1.45,1.4508,1.4514,1.4523,1.453,1.4538,1.4548,1.4557,1.4563,1.4571,1.4576,1.4576,1.4578,1.4577,1.4578,1.457,1.4567,1.4577,1.4577,1.4577,1.4577,1.4577,1.4577,1.4473,1.4485,1.4488,1.4502,1.4508,1.4518,1.4523,1.4529,1.4535,1.4546,1.4554,1.4558,1.4564,1.4573,1.4581,1.4582,1.4585,1.4586,1.4588,1.458,1.4579,1.4578,1.4576,1.4587,1.4587,1.4595,1.4595,1.4595]}]]